Other Public Products
Issued by NWS Grand Forks, ND

Home | Current Version | Previous Version | Text Only | Print | Product List | Glossary Off
Versions: 1 2 3 4 5 6 7 8 9 10 11 12 13 14 15 16 17 18 19 20 21 22 23 24 25 26 27 28 29 30 31 32 33 34 35 36 37 38 39 40 41 42 43 44 45 46 47 48 49 50

488
FPUS83 KFGF 310210
OPUFGF
PRAIRIE TO PINES WEATHER ROUNDUP
NATIONAL WEATHER SERVICE EASTERN NORTH DAKOTA/GRAND FORKS ND
900 PM CDT SAT JUL 30 2016

 **SATELLITE DATA USED TO AUGMENT SKY COVER AT AUTOMATED STATIONS**
 *****  WEATHER ACROSS EASTERN NORTH DAKOTA  *****

CITY           SKY/WX    TMP DP  RH WIND       PRES   REMARKS
GRAND FORKS    PTCLDY    75  63  66 SE10      29.87S
GRAND FORKS AF CLEAR     74  63  67 SE8       29.88S
GRAND CITY NWS NOT AVBL
BUXTON           N/A     75  64  70 SE12        N/A
DEVILS LAKE    CLEAR     74  63  68 SE13      29.85F
FARGO          PTCLDY    75  58  55 SE9       29.90S
WAHPETON ARPT  CLOUDY    68  55  64 SE5       29.93S
$$

 *****  WEATHER ACROSS CENTRAL AND WESTERN NORTH DAKOTA  *****

CITY           SKY/WX    TMP DP  RH WIND       PRES   REMARKS
JAMESTOWN      CLOUDY    73  62  68 SE12      29.86S
BISMARCK       CLEAR     79  64  60 SE18G25   29.79S
MINOT          CLEAR     78  62  57 NE5       29.78F
MINOT AFB      CLEAR     77  64  62 SE6       29.78S
GARRISON         N/A     77  65  66 E7        29.79S
WILLISTON      CLEAR     81  56  42 E10       29.75F
DICKINSON      CLEAR     77  60  55 NE8       29.77S
HETTINGER      CLEAR     83  58  42 E12       29.79S
$$

 *****  OTHER OBSERVATIONS NORTHEAST NORTH DAKOTA  *****

CITY           SKY/WX    TMP DP  RH WIND       PRES   REMARKS
WALHALLA       NOT AVBL
LANGDON        FAIR      70  66  88 SE9       29.87S
CAVALIER       FAIR      75  64  69 SE6       29.86S
GRAFTON        FAIR      73  64  73 SE8       29.88S
CANDO          NOT AVBL
FORT TOTTEN      N/A     72  61  67 S7        29.95
ROLLA          FAIR      70  66  88 S7        29.86S
RUGBY          NOT AVBL
 ***** THE ABOVE OBSERVATIONS ARE NON NWS ARE NOT QUALITY
        CONTROLLED AND MAY MIS-REPORT RAIN FOR SNOW...
$$

 *****  OTHER OBSERVATIONS SOUTHEAST NORTH DAKOTA *****

CITY           SKY/WX    TMP DP  RH WIND       PRES   REMARKS
COOPERSTOWN    NOT AVBL
VALLEY CITY    FAIR      73  63  68 SE13      29.91S
OAKES            N/A    N/A N/A N/A MISG        N/A
GWINNER        FAIR      72  61  68 SE10      29.90S
SHEYENNE NWR     N/A     72  60  67 SE7       29.95S
BUFFALO          N/A     71  56  58 SE10        N/A
WYNDMERE         N/A    N/A N/A N/A SE5         N/A
 ***** THE ABOVE OBSERVATIONS ARE NON NWS ARE NOT QUALITY
       CONTROLLED AND MAY MIS-REPORT RAIN FOR SNOW...
$$

  *****  WEATHER ACROSS NORTHERN MINNESOTA  *****

CITY           SKY/WX    TMP DP  RH WIND       PRES   REMARKS
FLAG ISLAND    PTCLDY    75  64  69 S10       29.92S
WARROAD        NOT AVBL
ROSEAU         CLEAR     70  63  78 S6        29.92S
HALLOCK        CLOUDY    73  64  73 S7        29.87F
THF RVR FALLS  CLOUDY    72  63  73 SE8       29.93F
HALSTAD          N/A     73  61  66 S8          N/A
FOSSTON        CLEAR     70  59  68 SE5       29.95F
BAUDETTE       CLEAR     68  59  73 S7        29.95S
WASKISH        CLEAR     66  63  88 CALM      29.97S
CROOKSTON      CLOUDY    73  63  68 S8        29.91S
$$
  *****  WEATHER ACROSS CENTRAL AND WEST MINNESOTA  *****

CITY           SKY/WX    TMP DP  RH WIND       PRES   REMARKS
BEMIDJI        CLEAR     68  58  70 SE5       29.97S
PARK RAPIDS    CLEAR     74  58  57 SE6       29.96F
WADENA         CLEAR     70  59  68 CALM      29.96S
DETROIT LAKES  CLEAR     72  59  64 S5        29.96F
MOORHEAD       CLEAR     72  61  68 SE6       29.92S
FERGUS FALLS   CLEAR     70  59  68 SE7       29.95R
ELBOW LAKE     FAIR      69  60  73 E6        29.95F
MORRIS MN      CLEAR     66  61  82 E6        29.93F
STAPLES        CLEAR     72  59  64 CALM      29.97S
WHEATON        CLEAR     70  63  78 E7        29.94S
$$
  *****  WEATHER ELSEWHERE ACROSS MINNESOTA  *****

CITY           SKY/WX    TMP DP  RH WIND       PRES   REMARKS
DULUTH         PTCLDY    64  59  83 E6        30.02S
INTRNTL FALLS  CLEAR     66  62  87 S3        29.98S
ELY            CLEAR     68  57  68 S5        30.02R
CLOQUET        PTCLDY    64  57  77 E3        30.02S
BRAINERD       CLEAR     71  63  75 SE6       29.98S
HIBBING        CLEAR     66  59  78 CALM      30.00S
ALEXANDRIA     CLEAR     71  58  63 SE6       29.98S
SAINT CLOUD    PTCLDY    72  66  81 E5        29.97S
MINNEAPOLIS    PTCLDY    75  63  66 SE7       29.97F
$$

  *****  WEATHER ACROSS SOUTH DAKOTA  *****

CITY           SKY/WX    TMP DP  RH WIND       PRES   REMARKS
SIOUX FALLS    PTCLDY    75  58  55 SE8       29.93F
BROOKINGS      CLEAR     71  60  68 SE8       29.94S
WATERTOWN      CLEAR     73  60  63 SE9       29.93S
HURON          CLOUDY    77  61  57 SE8       29.88R
SISSETON         N/A     71  60  68 S7        29.91S
ABERDEEN       CLOUDY    73  60  63 SE7       29.87R
MITCHELL       CLEAR     77  63  61 SE12      29.90R
PIERRE         CLEAR     83  63  50 SE20      29.78S
MOBRIDGE       CLOUDY    69  63  81 E12G23    29.80S
RAPID CITY     CLOUDY    77  60  55 SE10      29.81R
$$

  *****  SOME WEATHER IN NEARBY STATES *****

CITY           SKY/WX    TMP DP  RH WIND       PRES   REMARKS
GLASGOW MT     MOCLDY    82  57  42 E12       29.65F
GREAT FALLS MT CLEAR     90  32  12 W14       29.68F
CHEYENNE WY    CLOUDY    76  55  48 S10       30.05R
SCOTTSBLUFF NE CLEAR     81  58  45 S9        29.89R
OMAHA NE       PTCLDY    76  64  66 SE8       29.94S
DES MOINES IA  PTCLDY    76  66  71 S6        29.96R
DAVENPORT IA   CLEAR     72  67  84 E7        29.98R
CHICAGO IL     MOCLDY    71  64  78 NE8       29.99S
EAU CLAIRE WI  CLEAR     72  62  71 SE7       30.00R
LA CROSSE WI   MOCLDY    76  65  68 E6        29.99R
$$

  *****  SOME NATIONAL WEATHER *****

CITY           SKY/WX    TMP DP  RH WIND       PRES   REMARKS
LA GUARDIA NY  LGT RAIN  77  73  87 SE5       30.04S
RALEIGH NC     MOCLDY    81  73  76 NE3       29.99R
ATLANTA GA     CLOUDY    77  73  87 W5        30.04R
NEW ORLEANS LA MOCLDY    86  76  71 S5        30.00R HX  96
OKLAHOMA CITY  CLOUDY    84  75  74 SE12      29.90S HX  92
ALBUQUERQUE NM CLOUDY    83  50  31 S28G36    30.03S THUNDER
SALT LAKE CITY MOCLDY    95  42  16 N7        29.87R HX  91
LOS ANGELES CA MOSUNNY   72  65  78 W9        29.83S
BOISE ID       SUNNY     97  28   8 NW9       29.72F HX  91
SEATTLE WA     MOSUNNY   74  56  53 W8        29.93F
$$

*** WEATHER ACROSS MANITOBA...SASKATCHEWAN AND ONTARIO ***
                ***ONTARIO***

CITY           SKY/WX    TMP DP  RH WIND       PRES   REMARKS
GERALDTON      MOCLDY    64  50  59 S5        30.05R
THUNDER BAY    CLEAR     64  61  88 E7        30.03S
SIOUX LOOKOUT  MOCLDY    66  55  68 S5        29.97R
TORONTO        MOCLDY    73  54  49 E7        30.04R
BIG TROUT LK   MOCLDY    66  61  82 SE3       29.87R
PICKLE LAKE    MOCLDY    75  54  46 SW5       29.95S
DRYDEN         PTCLDY    72  61  68 SW7       29.97R
KENORA         MOCLDY    70  64  83 S7        29.94S
$$
                *** MANITOBA***

CITY           SKY/WX    TMP DP  RH WIND       PRES   REMARKS
BRANDON        MOCLDY    75  64  69 SE6       29.81S
DAUPHIN        PTCLDY    73  64  73 VRB2      29.77F
ISLAND LAKE    MOCLDY    73  64  73 SE5       29.81
PILOT MOUND      N/A     70  64  83 SE7         N/A
THE PAS        PTCLDY    73  64  73 VRB2      29.74R
THOMPSON       MOCLDY    70  64  83 NE10      29.77R
WINNIPEG       MOCLDY    72  64  78 S12       29.85F
LYNN LAKE      CLEAR     66  59  77 MISG      29.78S
CHURCHILL      CLOUDY    48  46  93 E9G17     29.92R
GILLAM         MOCLDY    66  63  88 VRB2      29.80S
$$
                ***SASKATCHEWAN***

CITY           SKY/WX    TMP DP  RH WIND       PRES   REMARKS
ESTEVAN        PTCLDY    72  63  73 E9        29.79S
KINDERSLEY     MOCLDY    72  64  78 SE5       29.66R
LLOYDMINSTER   MOCLDY    61  59  94 NE7       29.72R
PRINCE ALBERT  MOCLDY    72  63  73 SW5       29.69S
REGINA         MOCLDY    77  57  50 SE12G17   29.71S
YORKTON        CLEAR     75  63  64 SE5       29.76F   C1F1C2F2C3F3C4F4C5F5C6F6C7F7C8F8C9F9CaFaCbFbCcFcCdFdCe!



USA.gov is the U.S. government's official web portal to all federal, state and local government web resources and services.